Year,Month,Day,Hour,Minute,Value (Times are PST for temperature in C)
2013,06,15,00,00,10.40
2013,06,15,00,01,10.40
2013,06,15,00,02,10.40
2013,06,15,00,03,10.40
2013,06,15,00,04,10.50
2013,06,15,00,05,10.50
2013,06,15,00,06,10.50
2013,06,15,00,07,10.50
2013,06,15,00,08,10.50
2013,06,15,00,09,10.50
2013,06,15,00,10,10.50
2013,06,15,00,11,10.50
2013,06,15,00,12,10.40
2013,06,15,00,13,10.40
2013,06,15,00,14,10.30
2013,06,15,00,15,10.30
2013,06,15,00,16,10.20
2013,06,15,00,17,10.20
2013,06,15,00,18,10.10
2013,06,15,00,19,10.00
2013,06,15,00,20,10.00
2013,06,15,00,21,9.90
2013,06,15,00,22,9.90
2013,06,15,00,23,9.80
2013,06,15,00,24,9.80
2013,06,15,00,25,9.70
2013,06,15,00,26,9.70
2013,06,15,00,27,9.70
2013,06,15,00,28,9.60
2013,06,15,00,29,9.60
2013,06,15,00,30,9.60
2013,06,15,00,31,9.60
2013,06,15,00,32,9.50
2013,06,15,00,33,9.50
2013,06,15,00,34,9.50
2013,06,15,00,35,9.50
2013,06,15,00,36,9.50
2013,06,15,00,37,9.40
2013,06,15,00,38,9.40
2013,06,15,00,39,9.40
2013,06,15,00,40,9.40
2013,06,15,00,41,9.30
2013,06,15,00,42,9.30
2013,06,15,00,43,9.30
2013,06,15,00,44,9.30
2013,06,15,00,45,9.20
2013,06,15,00,46,9.20
2013,06,15,00,47,9.20
2013,06,15,00,48,9.20
2013,06,15,00,49,9.30
2013,06,15,00,50,9.30
2013,06,15,00,51,9.30
2013,06,15,00,52,9.30
2013,06,15,00,53,9.30
2013,06,15,00,54,9.30
2013,06,15,00,55,9.40
2013,06,15,00,56,9.40
2013,06,15,00,57,9.40
2013,06,15,00,58,9.40
2013,06,15,00,59,9.50
2013,06,15,01,00,9.50
2013,06,15,01,01,9.50
2013,06,15,01,02,9.60
2013,06,15,01,03,9.60
2013,06,15,01,04,9.60
2013,06,15,01,05,9.50
2013,06,15,01,06,9.50
2013,06,15,01,07,9.40
2013,06,15,01,08,9.40
2013,06,15,01,09,9.40
2013,06,15,01,10,9.30
2013,06,15,01,11,9.30
2013,06,15,01,12,9.30
2013,06,15,01,13,9.20
2013,06,15,01,14,9.20
2013,06,15,01,15,9.20
2013,06,15,01,16,9.20
2013,06,15,01,17,9.20
2013,06,15,01,18,9.20
2013,06,15,01,19,9.20
2013,06,15,01,20,9.20
2013,06,15,01,21,9.30
2013,06,15,01,22,9.20
2013,06,15,01,23,9.30
2013,06,15,01,24,9.20
2013,06,15,01,25,9.20
2013,06,15,01,26,9.20
2013,06,15,01,27,9.20
2013,06,15,01,28,9.10
2013,06,15,01,29,9.10
2013,06,15,01,30,9.10
2013,06,15,01,31,9.00
2013,06,15,01,32,9.00
2013,06,15,01,33,8.90
2013,06,15,01,34,8.90
2013,06,15,01,35,8.90
2013,06,15,01,36,8.90
2013,06,15,01,37,8.90
2013,06,15,01,38,8.80
2013,06,15,01,39,8.80
2013,06,15,01,40,8.80
2013,06,15,01,41,8.80
2013,06,15,01,42,8.80
2013,06,15,01,43,8.70
2013,06,15,01,44,8.70
2013,06,15,01,45,8.70
2013,06,15,01,46,8.70
2013,06,15,01,47,8.80
2013,06,15,01,48,8.80
2013,06,15,01,49,8.80
2013,06,15,01,50,8.80
2013,06,15,01,51,8.80
2013,06,15,01,52,8.80
2013,06,15,01,53,8.80
2013,06,15,01,54,8.80
2013,06,15,01,55,8.80
2013,06,15,01,56,8.80
2013,06,15,01,57,8.80
2013,06,15,01,58,8.80
2013,06,15,01,59,8.90
2013,06,15,02,00,8.90
2013,06,15,02,01,8.90
2013,06,15,02,02,8.90
2013,06,15,02,03,8.90
2013,06,15,02,04,8.80
2013,06,15,02,05,8.80
2013,06,15,02,06,8.80
2013,06,15,02,07,8.80
2013,06,15,02,08,8.80
2013,06,15,02,09,8.80
2013,06,15,02,10,8.80
2013,06,15,02,11,8.80
2013,06,15,02,12,8.80
2013,06,15,02,13,8.80
2013,06,15,02,14,8.80
2013,06,15,02,15,8.80
2013,06,15,02,16,8.80
2013,06,15,02,17,8.90
2013,06,15,02,18,8.90
2013,06,15,02,19,8.90
2013,06,15,02,20,8.90
2013,06,15,02,21,8.90
2013,06,15,02,22,8.90
2013,06,15,02,23,8.90
2013,06,15,02,24,8.90
2013,06,15,02,25,8.80
2013,06,15,02,26,8.80
2013,06,15,02,27,8.80
2013,06,15,02,28,8.80
2013,06,15,02,29,8.80
2013,06,15,02,30,8.70
2013,06,15,02,31,8.70
2013,06,15,02,32,8.70
2013,06,15,02,33,8.70
2013,06,15,02,34,8.70
2013,06,15,02,35,8.70
2013,06,15,02,36,8.70
2013,06,15,02,37,8.70
2013,06,15,02,38,8.70
2013,06,15,02,39,8.70
2013,06,15,02,40,8.70
2013,06,15,02,41,8.70
2013,06,15,02,42,8.70
2013,06,15,02,43,8.80
2013,06,15,02,44,8.80
2013,06,15,02,45,8.80
2013,06,15,02,46,8.80
2013,06,15,02,47,8.80
2013,06,15,02,48,8.80
2013,06,15,02,49,8.80
2013,06,15,02,50,8.80
2013,06,15,02,51,8.80
2013,06,15,02,52,8.80
2013,06,15,02,53,8.80
2013,06,15,02,54,8.80
2013,06,15,02,55,8.70
2013,06,15,02,56,8.70
2013,06,15,02,57,8.70
2013,06,15,02,58,8.70
2013,06,15,02,59,8.70
2013,06,15,03,00,8.70
2013,06,15,03,01,8.70
2013,06,15,03,02,8.70
2013,06,15,03,03,8.60
2013,06,15,03,04,8.60
2013,06,15,03,05,8.60
2013,06,15,03,06,8.60
2013,06,15,03,07,8.60
2013,06,15,03,08,8.60
2013,06,15,03,09,8.60
2013,06,15,03,10,8.60
2013,06,15,03,11,8.60
2013,06,15,03,12,8.60
2013,06,15,03,13,8.60
2013,06,15,03,14,8.60
2013,06,15,03,15,8.60
2013,06,15,03,16,8.60
2013,06,15,03,17,8.60
2013,06,15,03,18,8.60
2013,06,15,03,19,8.60
2013,06,15,03,20,8.60
2013,06,15,03,21,8.60
2013,06,15,03,22,8.70
2013,06,15,03,23,8.70
2013,06,15,03,24,8.70
2013,06,15,03,25,8.70
2013,06,15,03,26,8.70
2013,06,15,03,27,8.70
2013,06,15,03,28,8.70
2013,06,15,03,29,8.70
2013,06,15,03,30,8.70
2013,06,15,03,31,8.70
2013,06,15,03,32,8.80
2013,06,15,03,33,8.80
2013,06,15,03,34,8.80
2013,06,15,03,35,8.80
2013,06,15,03,36,8.80
2013,06,15,03,37,8.80
2013,06,15,03,38,8.80
2013,06,15,03,39,8.80
2013,06,15,03,40,8.80
2013,06,15,03,41,8.80
2013,06,15,03,42,8.80
2013,06,15,03,43,8.80
2013,06,15,03,44,8.80
2013,06,15,03,45,8.70
2013,06,15,03,46,8.70
2013,06,15,03,47,8.70
2013,06,15,03,48,8.70
2013,06,15,03,49,8.70
2013,06,15,03,50,8.60
2013,06,15,03,51,8.60
2013,06,15,03,52,8.60
2013,06,15,03,53,8.60
2013,06,15,03,54,8.60
2013,06,15,03,55,8.60
2013,06,15,03,56,8.50
2013,06,15,03,57,8.50
2013,06,15,03,58,8.50
2013,06,15,03,59,8.50
2013,06,15,04,00,8.50
2013,06,15,04,01,8.50
2013,06,15,04,02,8.50
2013,06,15,04,03,8.50
2013,06,15,04,04,8.50
2013,06,15,04,05,8.50
2013,06,15,04,06,8.50
2013,06,15,04,07,8.50
2013,06,15,04,08,8.40
2013,06,15,04,09,8.40
2013,06,15,04,10,8.40
2013,06,15,04,11,8.40
2013,06,15,04,12,8.40
2013,06,15,04,13,8.40
2013,06,15,04,14,8.40
2013,06,15,04,15,8.40
2013,06,15,04,16,8.30
2013,06,15,04,17,8.30
2013,06,15,04,18,8.30
2013,06,15,04,19,8.30
2013,06,15,04,20,8.30
2013,06,15,04,21,8.30
2013,06,15,04,22,8.30
2013,06,15,04,23,8.20
2013,06,15,04,24,8.20
2013,06,15,04,25,8.20
2013,06,15,04,26,8.20
2013,06,15,04,27,8.20
2013,06,15,04,28,8.20
2013,06,15,04,29,8.10
2013,06,15,04,30,8.10
2013,06,15,04,31,8.00
2013,06,15,04,32,8.00
2013,06,15,04,33,7.90
2013,06,15,04,34,7.80
2013,06,15,04,35,7.80
2013,06,15,04,36,7.70
2013,06,15,04,37,7.70
2013,06,15,04,38,7.60
2013,06,15,04,39,7.60
2013,06,15,04,40,7.60
2013,06,15,04,41,7.50
2013,06,15,04,42,7.50
2013,06,15,04,43,7.50
2013,06,15,04,44,7.50
2013,06,15,04,45,7.50
2013,06,15,04,46,7.40
2013,06,15,04,47,7.40
2013,06,15,04,48,7.40
2013,06,15,04,49,7.40
2013,06,15,04,50,7.40
2013,06,15,04,51,7.40
2013,06,15,04,52,7.30
2013,06,15,04,53,7.30
2013,06,15,04,54,7.30
2013,06,15,04,55,7.30
2013,06,15,04,56,7.30
2013,06,15,04,57,7.30
2013,06,15,04,58,7.30
2013,06,15,04,59,7.30
2013,06,15,05,00,7.30
2013,06,15,05,01,7.30
2013,06,15,05,02,7.30
2013,06,15,05,03,7.30
2013,06,15,05,04,7.30
2013,06,15,05,05,7.30
2013,06,15,05,06,7.30
2013,06,15,05,07,7.30
2013,06,15,05,08,7.40
2013,06,15,05,09,7.40
2013,06,15,05,10,7.40
2013,06,15,05,11,7.40
2013,06,15,05,12,7.40
2013,06,15,05,13,7.40
2013,06,15,05,14,7.40
2013,06,15,05,15,7.50
2013,06,15,05,16,7.50
2013,06,15,05,17,7.50
2013,06,15,05,18,7.50
2013,06,15,05,19,7.50
2013,06,15,05,20,7.50
2013,06,15,05,21,7.50
2013,06,15,05,22,7.50
2013,06,15,05,23,7.50
2013,06,15,05,24,7.50
2013,06,15,05,25,7.50
2013,06,15,05,26,7.50
2013,06,15,05,27,7.50
2013,06,15,05,28,7.50
2013,06,15,05,29,7.50
2013,06,15,05,30,7.50
2013,06,15,05,31,7.50
2013,06,15,05,32,7.50
2013,06,15,05,33,7.50
2013,06,15,05,34,7.50
2013,06,15,05,35,7.50
2013,06,15,05,36,7.50
2013,06,15,05,37,7.50
2013,06,15,05,38,7.50
2013,06,15,05,39,7.50
2013,06,15,05,40,7.50
2013,06,15,05,41,7.50
2013,06,15,05,42,7.50
2013,06,15,05,43,7.50
2013,06,15,05,44,7.50
2013,06,15,05,45,7.50
2013,06,15,05,46,7.50
2013,06,15,05,47,7.50
2013,06,15,05,48,7.50
2013,06,15,05,49,7.50
2013,06,15,05,50,7.50
2013,06,15,05,51,7.50
2013,06,15,05,52,7.50
2013,06,15,05,53,7.50
2013,06,15,05,54,7.50
2013,06,15,05,55,7.50
2013,06,15,05,56,7.50
2013,06,15,05,57,7.50
2013,06,15,05,58,7.50
2013,06,15,05,59,7.60
2013,06,15,06,00,7.60
2013,06,15,06,01,7.60
2013,06,15,06,02,7.60
2013,06,15,06,03,7.60
2013,06,15,06,04,7.60
2013,06,15,06,05,7.60
2013,06,15,06,06,7.60
2013,06,15,06,07,7.60
2013,06,15,06,08,7.60
2013,06,15,06,09,7.60
2013,06,15,06,10,7.60
2013,06,15,06,11,7.60
2013,06,15,06,12,7.60
2013,06,15,06,13,7.60
2013,06,15,06,14,7.60
2013,06,15,06,15,7.70
2013,06,15,06,16,7.70
2013,06,15,06,17,7.70
2013,06,15,06,18,7.70
2013,06,15,06,19,7.70
2013,06,15,06,20,7.70
2013,06,15,06,21,7.70
2013,06,15,06,22,7.70
2013,06,15,06,23,7.70
2013,06,15,06,24,7.70
2013,06,15,06,25,7.80
2013,06,15,06,26,7.80
2013,06,15,06,27,7.80
2013,06,15,06,28,7.90
2013,06,15,06,29,7.90
2013,06,15,06,30,8.00
2013,06,15,06,31,8.00
2013,06,15,06,32,8.10
2013,06,15,06,33,8.20
2013,06,15,06,34,8.20
2013,06,15,06,35,8.30
2013,06,15,06,36,8.30
2013,06,15,06,37,8.40
2013,06,15,06,38,8.50
2013,06,15,06,39,8.50
2013,06,15,06,40,8.60
2013,06,15,06,41,8.60
2013,06,15,06,42,8.70
2013,06,15,06,43,8.80
2013,06,15,06,44,8.80
2013,06,15,06,45,8.80
2013,06,15,06,46,8.90
2013,06,15,06,47,8.90
2013,06,15,06,48,9.00
2013,06,15,06,49,9.00
2013,06,15,06,50,9.10
2013,06,15,06,51,9.20
2013,06,15,06,52,9.20
2013,06,15,06,53,9.30
2013,06,15,06,54,9.30
2013,06,15,06,55,9.30
2013,06,15,06,56,9.40
2013,06,15,06,57,9.40
2013,06,15,06,58,9.50
2013,06,15,06,59,9.60
2013,06,15,07,00,9.60
2013,06,15,07,01,9.70
2013,06,15,07,02,9.80
2013,06,15,07,03,9.90
2013,06,15,07,04,10.00
2013,06,15,07,05,10.10
2013,06,15,07,06,10.20
2013,06,15,07,07,10.30
2013,06,15,07,08,10.40
2013,06,15,07,09,10.50
2013,06,15,07,10,10.50
2013,06,15,07,11,10.60
2013,06,15,07,12,10.70
2013,06,15,07,13,10.80
2013,06,15,07,14,10.90
2013,06,15,07,15,10.90
2013,06,15,07,16,11.00
2013,06,15,07,17,11.10
2013,06,15,07,18,11.20
2013,06,15,07,19,11.20
2013,06,15,07,20,11.30
2013,06,15,07,21,11.40
2013,06,15,07,22,11.50
2013,06,15,07,23,11.60
2013,06,15,07,24,11.60
2013,06,15,07,25,11.70
2013,06,15,07,26,11.80
2013,06,15,07,27,11.90
2013,06,15,07,28,12.00
2013,06,15,07,29,12.10
2013,06,15,07,30,12.20
2013,06,15,07,31,12.30
2013,06,15,07,32,12.40
2013,06,15,07,33,12.50
2013,06,15,07,34,12.60
2013,06,15,07,35,12.70
2013,06,15,07,36,12.70
2013,06,15,07,37,12.80
2013,06,15,07,38,12.90
2013,06,15,07,39,12.90
2013,06,15,07,40,13.00
2013,06,15,07,41,13.10
2013,06,15,07,42,13.10
2013,06,15,07,43,13.10
2013,06,15,07,44,13.10
2013,06,15,07,45,13.20
2013,06,15,07,46,13.20
2013,06,15,07,47,13.20
2013,06,15,07,48,13.20
2013,06,15,07,49,13.30
2013,06,15,07,50,13.30
2013,06,15,07,51,13.40
2013,06,15,07,52,13.50
2013,06,15,07,53,13.60
2013,06,15,07,54,13.60
2013,06,15,07,55,13.70
2013,06,15,07,56,13.80
2013,06,15,07,57,13.80
2013,06,15,07,58,13.80
2013,06,15,07,59,13.80
2013,06,15,08,00,13.90
2013,06,15,08,01,13.90
2013,06,15,08,02,14.00
2013,06,15,08,03,14.00
2013,06,15,08,04,14.00
2013,06,15,08,05,14.00
2013,06,15,08,06,14.00
2013,06,15,08,07,14.10
2013,06,15,08,08,14.10
2013,06,15,08,09,14.10
2013,06,15,08,10,14.10
2013,06,15,08,11,14.10
2013,06,15,08,12,14.10
2013,06,15,08,13,14.20
2013,06,15,08,14,14.20
2013,06,15,08,15,14.20
2013,06,15,08,16,14.20
2013,06,15,08,17,14.20
2013,06,15,08,18,14.20
2013,06,15,08,19,14.20
2013,06,15,08,20,14.20
2013,06,15,08,21,14.20
2013,06,15,08,22,14.20
2013,06,15,08,23,14.30
2013,06,15,08,24,14.30
2013,06,15,08,25,14.30
2013,06,15,08,26,14.30
2013,06,15,08,27,14.30
2013,06,15,08,28,14.40
2013,06,15,08,29,14.40
2013,06,15,08,30,14.40
2013,06,15,08,31,14.40
2013,06,15,08,32,14.50
2013,06,15,08,33,14.50
2013,06,15,08,34,14.60
2013,06,15,08,35,14.60
2013,06,15,08,36,14.60
2013,06,15,08,37,14.70
2013,06,15,08,38,14.70
2013,06,15,08,39,14.70
2013,06,15,08,40,14.70
2013,06,15,08,41,14.70
2013,06,15,08,42,14.70
2013,06,15,08,43,14.80
2013,06,15,08,44,14.80
2013,06,15,08,45,14.80
2013,06,15,08,46,14.80
2013,06,15,08,47,14.90
2013,06,15,08,48,14.90
2013,06,15,08,49,14.90
2013,06,15,08,50,14.90
2013,06,15,08,51,14.90
2013,06,15,08,52,15.00
2013,06,15,08,53,15.00
2013,06,15,08,54,15.10
2013,06,15,08,55,15.10
2013,06,15,08,56,15.20
2013,06,15,08,57,15.20
2013,06,15,08,58,15.20
2013,06,15,08,59,15.30
2013,06,15,09,00,15.30
2013,06,15,09,01,15.40
2013,06,15,09,02,15.40
2013,06,15,09,03,15.50
2013,06,15,09,04,15.50
2013,06,15,09,05,15.60
2013,06,15,09,06,15.70
2013,06,15,09,07,15.70
2013,06,15,09,08,15.70
2013,06,15,09,09,15.70
2013,06,15,09,10,15.70
2013,06,15,09,11,15.70
2013,06,15,09,12,15.70
2013,06,15,09,13,15.70
2013,06,15,09,14,15.70
2013,06,15,09,15,15.70
2013,06,15,09,16,15.70
2013,06,15,09,17,15.70
2013,06,15,09,18,15.60
2013,06,15,09,19,15.70
2013,06,15,09,20,15.70
2013,06,15,09,21,15.70
2013,06,15,09,22,15.70
2013,06,15,09,23,15.70
2013,06,15,09,24,15.70
2013,06,15,09,25,15.70
2013,06,15,09,26,15.70
2013,06,15,09,27,15.70
2013,06,15,09,28,15.70
2013,06,15,09,29,15.70
2013,06,15,09,30,15.80
2013,06,15,09,31,15.80
2013,06,15,09,32,15.80
2013,06,15,09,33,15.80
2013,06,15,09,34,15.80
2013,06,15,09,35,15.80
2013,06,15,09,36,15.80
2013,06,15,09,37,15.80
2013,06,15,09,38,15.80
2013,06,15,09,39,15.70
2013,06,15,09,40,15.70
2013,06,15,09,41,15.70
2013,06,15,09,42,15.80
2013,06,15,09,43,15.80
2013,06,15,09,44,15.80
2013,06,15,09,45,15.80
2013,06,15,09,46,15.90
2013,06,15,09,47,15.90
2013,06,15,09,48,15.90
2013,06,15,09,49,15.90
2013,06,15,09,50,15.90
2013,06,15,09,51,15.90
2013,06,15,09,52,16.00
2013,06,15,09,53,16.00
2013,06,15,09,54,16.00
2013,06,15,09,55,16.10
2013,06,15,09,56,16.10
2013,06,15,09,57,16.20
2013,06,15,09,58,16.30
2013,06,15,09,59,16.30
2013,06,15,10,00,16.40
2013,06,15,10,01,16.40
2013,06,15,10,02,16.40
2013,06,15,10,03,16.40
2013,06,15,10,04,16.50
2013,06,15,10,05,16.60
2013,06,15,10,06,16.70
2013,06,15,10,07,16.70
2013,06,15,10,08,16.80
2013,06,15,10,09,16.80
2013,06,15,10,10,16.90
2013,06,15,10,11,16.90
2013,06,15,10,12,17.00
2013,06,15,10,13,17.00
2013,06,15,10,14,17.10
2013,06,15,10,15,17.10
2013,06,15,10,16,17.10
2013,06,15,10,17,17.10
2013,06,15,10,18,17.10
2013,06,15,10,19,17.10
2013,06,15,10,20,17.10
2013,06,15,10,21,17.10
2013,06,15,10,22,17.10
2013,06,15,10,23,17.00
2013,06,15,10,24,16.90
2013,06,15,10,25,16.80
2013,06,15,10,26,16.80
2013,06,15,10,27,16.70
2013,06,15,10,28,16.70
2013,06,15,10,29,16.70
2013,06,15,10,30,16.70
2013,06,15,10,31,16.70
2013,06,15,10,32,16.70
2013,06,15,10,33,16.70
2013,06,15,10,34,16.70
2013,06,15,10,35,16.80
2013,06,15,10,36,16.80
2013,06,15,10,37,16.90
2013,06,15,10,38,16.90
2013,06,15,10,39,16.90
2013,06,15,10,40,16.90
2013,06,15,10,41,16.90
2013,06,15,10,42,16.90
2013,06,15,10,43,16.90
2013,06,15,10,44,16.90
2013,06,15,10,45,16.90
2013,06,15,10,46,16.90
2013,06,15,10,47,16.90
2013,06,15,10,48,16.90
2013,06,15,10,49,16.90
2013,06,15,10,50,16.90
2013,06,15,10,51,16.90
2013,06,15,10,52,16.90
2013,06,15,10,53,17.00
2013,06,15,10,54,17.00
2013,06,15,10,55,17.10
2013,06,15,10,56,17.10
2013,06,15,10,57,17.20
2013,06,15,10,58,17.20
2013,06,15,10,59,17.20
2013,06,15,11,00,17.20
2013,06,15,11,01,17.20
2013,06,15,11,02,17.20
2013,06,15,11,03,17.20
2013,06,15,11,04,17.30
2013,06,15,11,05,17.30
2013,06,15,11,06,17.30
2013,06,15,11,07,17.30
2013,06,15,11,08,17.20
2013,06,15,11,09,17.20
2013,06,15,11,10,17.20
2013,06,15,11,11,17.20
2013,06,15,11,12,17.20
2013,06,15,11,13,17.30
2013,06,15,11,14,17.40
2013,06,15,11,15,17.50
2013,06,15,11,16,17.60
2013,06,15,11,17,17.70
2013,06,15,11,18,17.70
2013,06,15,11,19,17.70
2013,06,15,11,20,17.70
2013,06,15,11,21,17.70
2013,06,15,11,22,17.70
2013,06,15,11,23,17.70
2013,06,15,11,24,17.70
2013,06,15,11,25,17.80
2013,06,15,11,26,17.80
2013,06,15,11,27,17.90
2013,06,15,11,28,18.00
2013,06,15,11,29,18.10
2013,06,15,11,30,18.20
2013,06,15,11,31,18.20
2013,06,15,11,32,18.20
2013,06,15,11,33,18.20
2013,06,15,11,34,18.20
2013,06,15,11,35,18.20
2013,06,15,11,36,18.20
2013,06,15,11,37,18.20
2013,06,15,11,38,18.20
2013,06,15,11,39,18.20
2013,06,15,11,40,18.10
2013,06,15,11,41,18.10
2013,06,15,11,42,18.00
2013,06,15,11,43,18.00
2013,06,15,11,44,17.90
2013,06,15,11,45,17.90
2013,06,15,11,46,17.80
2013,06,15,11,47,17.90
2013,06,15,11,48,18.00
2013,06,15,11,49,18.10
2013,06,15,11,50,18.20
2013,06,15,11,51,18.30
2013,06,15,11,52,18.30
2013,06,15,11,53,18.30
2013,06,15,11,54,18.30
2013,06,15,11,55,18.40
2013,06,15,11,56,18.40
2013,06,15,11,57,18.50
2013,06,15,11,58,18.60
2013,06,15,11,59,18.60
2013,06,15,12,00,18.60
2013,06,15,12,01,18.60
2013,06,15,12,02,18.70
2013,06,15,12,03,18.70
2013,06,15,12,04,18.70
2013,06,15,12,05,18.70
2013,06,15,12,06,18.80
2013,06,15,12,07,18.80
2013,06,15,12,08,18.80
2013,06,15,12,09,18.80
2013,06,15,12,10,18.80
2013,06,15,12,11,18.80
2013,06,15,12,12,18.80
2013,06,15,12,13,18.80
2013,06,15,12,14,18.80
2013,06,15,12,15,18.70
2013,06,15,12,16,18.70
2013,06,15,12,17,18.70
2013,06,15,12,18,18.70
2013,06,15,12,19,18.70
2013,06,15,12,20,18.70
2013,06,15,12,21,18.70
2013,06,15,12,22,18.80
2013,06,15,12,23,18.80
2013,06,15,12,24,18.80
2013,06,15,12,25,18.80
2013,06,15,12,26,18.90
2013,06,15,12,27,18.90
2013,06,15,12,28,18.90
2013,06,15,12,29,19.00
2013,06,15,12,30,19.00
2013,06,15,12,31,19.10
2013,06,15,12,32,19.10
2013,06,15,12,33,19.10
2013,06,15,12,34,19.20
2013,06,15,12,35,19.30
2013,06,15,12,36,19.40
2013,06,15,12,37,19.50
2013,06,15,12,38,19.50
2013,06,15,12,39,19.60
2013,06,15,12,40,19.60
2013,06,15,12,41,19.60
2013,06,15,12,42,19.60
2013,06,15,12,43,19.60
2013,06,15,12,44,19.60
2013,06,15,12,45,19.60
2013,06,15,12,46,19.70
2013,06,15,12,47,19.70
2013,06,15,12,48,19.70
2013,06,15,12,49,19.60
2013,06,15,12,50,19.50
2013,06,15,12,51,19.40
2013,06,15,12,52,19.40
2013,06,15,12,53,19.40
2013,06,15,12,54,19.40
2013,06,15,12,55,19.30
2013,06,15,12,56,19.30
2013,06,15,12,57,19.30
2013,06,15,12,58,19.30
2013,06,15,12,59,19.20
2013,06,15,13,00,19.10
2013,06,15,13,01,19.00
2013,06,15,13,02,18.90
2013,06,15,13,03,18.90
2013,06,15,13,04,18.80
2013,06,15,13,05,18.80
2013,06,15,13,06,18.90
2013,06,15,13,07,18.90
2013,06,15,13,08,19.00
2013,06,15,13,09,19.10
2013,06,15,13,10,19.20
2013,06,15,13,11,19.20
2013,06,15,13,12,19.30
2013,06,15,13,13,19.30
2013,06,15,13,14,19.30
2013,06,15,13,15,19.10
2013,06,15,13,16,19.10
2013,06,15,13,17,19.00
2013,06,15,13,18,19.10
2013,06,15,13,19,19.10
2013,06,15,13,20,19.20
2013,06,15,13,21,19.20
2013,06,15,13,22,19.30
2013,06,15,13,23,19.40
2013,06,15,13,24,19.40
2013,06,15,13,25,19.50
2013,06,15,13,26,19.60
2013,06,15,13,27,19.60
2013,06,15,13,28,19.60
2013,06,15,13,29,19.60
2013,06,15,13,30,19.50
2013,06,15,13,31,19.50
2013,06,15,13,32,19.40
2013,06,15,13,33,19.40
2013,06,15,13,34,19.40
2013,06,15,13,35,19.50
2013,06,15,13,36,19.50
2013,06,15,13,37,19.60
2013,06,15,13,38,19.70
2013,06,15,13,39,19.80
2013,06,15,13,40,19.90
2013,06,15,13,41,20.00
2013,06,15,13,42,20.10
2013,06,15,13,43,20.10
2013,06,15,13,44,20.00
2013,06,15,13,45,20.00
2013,06,15,13,46,20.00
2013,06,15,13,47,20.00
2013,06,15,13,48,20.00
2013,06,15,13,49,20.10
2013,06,15,13,50,20.10
2013,06,15,13,51,20.10
2013,06,15,13,52,20.10
2013,06,15,13,53,20.10
2013,06,15,13,54,20.10
2013,06,15,13,55,20.10
2013,06,15,13,56,20.20
2013,06,15,13,57,20.20
2013,06,15,13,58,20.30
2013,06,15,13,59,20.30
2013,06,15,14,00,20.30
2013,06,15,14,01,20.30
2013,06,15,14,02,20.40
2013,06,15,14,03,20.40
2013,06,15,14,04,20.50
2013,06,15,14,05,20.60
2013,06,15,14,06,20.70
2013,06,15,14,07,20.80
2013,06,15,14,08,20.80
2013,06,15,14,09,20.70
2013,06,15,14,10,20.70
2013,06,15,14,11,20.70
2013,06,15,14,12,20.70
2013,06,15,14,13,20.70
2013,06,15,14,14,20.70
2013,06,15,14,15,20.70
2013,06,15,14,16,20.70
2013,06,15,14,17,20.70
2013,06,15,14,18,20.70
2013,06,15,14,19,20.70
2013,06,15,14,20,20.70
2013,06,15,14,21,20.70
2013,06,15,14,22,20.80
2013,06,15,14,23,20.90
2013,06,15,14,24,21.00
2013,06,15,14,25,21.10
2013,06,15,14,26,21.10
2013,06,15,14,27,21.20
2013,06,15,14,28,21.20
2013,06,15,14,29,21.20
2013,06,15,14,30,21.20
2013,06,15,14,31,21.10
2013,06,15,14,32,21.10
2013,06,15,14,33,21.20
2013,06,15,14,34,21.20
2013,06,15,14,35,21.30
2013,06,15,14,36,21.30
2013,06,15,14,37,21.40
2013,06,15,14,38,21.40
2013,06,15,14,39,21.50
2013,06,15,14,40,21.50
2013,06,15,14,41,21.50
2013,06,15,14,42,21.60
2013,06,15,14,43,21.50
2013,06,15,14,44,21.60
2013,06,15,14,45,21.60
2013,06,15,14,46,21.60
2013,06,15,14,47,21.60
2013,06,15,14,48,21.60
2013,06,15,14,49,21.60
2013,06,15,14,50,21.60
2013,06,15,14,51,21.60
2013,06,15,14,52,21.60
2013,06,15,14,53,21.60
2013,06,15,14,54,21.50
2013,06,15,14,55,21.40
2013,06,15,14,56,21.30
2013,06,15,14,57,21.30
2013,06,15,14,58,21.30
2013,06,15,14,59,21.40
2013,06,15,15,00,21.40
2013,06,15,15,01,21.40
2013,06,15,15,02,21.40
2013,06,15,15,03,21.40
2013,06,15,15,04,21.50
2013,06,15,15,05,21.60
2013,06,15,15,06,21.60
2013,06,15,15,07,21.60
2013,06,15,15,08,21.70
2013,06,15,15,09,21.70
2013,06,15,15,10,21.80
2013,06,15,15,11,21.80
2013,06,15,15,12,21.90
2013,06,15,15,13,22.00
2013,06,15,15,14,22.10
2013,06,15,15,15,22.10
2013,06,15,15,16,22.20
2013,06,15,15,17,22.20
2013,06,15,15,18,22.20
2013,06,15,15,19,22.10
2013,06,15,15,20,22.10
2013,06,15,15,21,22.00
2013,06,15,15,22,21.90
2013,06,15,15,23,21.80
2013,06,15,15,24,21.60
2013,06,15,15,25,21.50
2013,06,15,15,26,21.40
2013,06,15,15,27,21.40
2013,06,15,15,28,21.40
2013,06,15,15,29,21.30
2013,06,15,15,30,21.30
2013,06,15,15,31,21.10
2013,06,15,15,32,21.00
2013,06,15,15,33,20.90
2013,06,15,15,34,20.90
2013,06,15,15,35,20.90
2013,06,15,15,36,20.90
2013,06,15,15,37,20.90
2013,06,15,15,38,20.90
2013,06,15,15,39,20.90
2013,06,15,15,40,20.90
2013,06,15,15,41,20.90
2013,06,15,15,42,21.00
2013,06,15,15,43,21.00
2013,06,15,15,44,21.10
2013,06,15,15,45,21.20
2013,06,15,15,46,21.30
2013,06,15,15,47,21.40
2013,06,15,15,48,21.50
2013,06,15,15,49,21.60
2013,06,15,15,50,21.70
2013,06,15,15,51,21.80
2013,06,15,15,52,21.80
2013,06,15,15,53,21.80
2013,06,15,15,54,21.80
2013,06,15,15,55,21.80
2013,06,15,15,56,21.70
2013,06,15,15,57,21.70
2013,06,15,15,58,21.70
2013,06,15,15,59,21.70
2013,06,15,16,00,21.70
2013,06,15,16,01,21.70
2013,06,15,16,02,21.70
2013,06,15,16,03,21.70
2013,06,15,16,04,21.70
2013,06,15,16,05,21.70
2013,06,15,16,06,21.80
2013,06,15,16,07,21.90
2013,06,15,16,08,21.90
2013,06,15,16,09,21.90
2013,06,15,16,10,21.90
2013,06,15,16,11,21.90
2013,06,15,16,12,22.00
2013,06,15,16,13,22.10
2013,06,15,16,14,22.20
2013,06,15,16,15,22.30
2013,06,15,16,16,22.30
2013,06,15,16,17,22.40
2013,06,15,16,18,22.30
2013,06,15,16,19,22.40
2013,06,15,16,20,22.50
2013,06,15,16,21,22.50
2013,06,15,16,22,22.60
2013,06,15,16,23,22.60
2013,06,15,16,24,22.60
2013,06,15,16,25,22.50
2013,06,15,16,26,22.50
2013,06,15,16,27,22.50
2013,06,15,16,28,22.40
2013,06,15,16,29,22.40
2013,06,15,16,30,22.30
2013,06,15,16,31,22.30
2013,06,15,16,32,22.30
2013,06,15,16,33,22.30
2013,06,15,16,34,22.30
2013,06,15,16,35,22.30
2013,06,15,16,36,22.30
2013,06,15,16,37,22.40
2013,06,15,16,38,22.40
2013,06,15,16,39,22.50
2013,06,15,16,40,22.50
2013,06,15,16,41,22.50
2013,06,15,16,42,22.40
2013,06,15,16,43,22.30
2013,06,15,16,44,22.30
2013,06,15,16,45,22.30
2013,06,15,16,46,22.30
2013,06,15,16,47,22.30
2013,06,15,16,48,22.30
2013,06,15,16,49,22.30
2013,06,15,16,50,22.40
2013,06,15,16,51,22.40
2013,06,15,16,52,22.50
2013,06,15,16,53,22.50
2013,06,15,16,54,22.60
2013,06,15,16,55,22.60
2013,06,15,16,56,22.50
2013,06,15,16,57,22.40
2013,06,15,16,58,22.40
2013,06,15,16,59,22.40
2013,06,15,17,00,22.40
2013,06,15,17,01,22.40
2013,06,15,17,02,22.30
2013,06,15,17,03,22.30
2013,06,15,17,04,22.30
2013,06,15,17,05,22.30
2013,06,15,17,06,22.30
2013,06,15,17,07,22.40
2013,06,15,17,08,22.40
2013,06,15,17,09,22.50
2013,06,15,17,10,22.60
2013,06,15,17,11,22.70
2013,06,15,17,12,22.70
2013,06,15,17,13,22.70
2013,06,15,17,14,22.70
2013,06,15,17,15,22.80
2013,06,15,17,16,22.80
2013,06,15,17,17,22.80
2013,06,15,17,18,22.90
2013,06,15,17,19,22.90
2013,06,15,17,20,23.00
2013,06,15,17,21,22.90
2013,06,15,17,22,22.90
2013,06,15,17,23,22.90
2013,06,15,17,24,22.90
2013,06,15,17,25,22.80
2013,06,15,17,26,22.80
2013,06,15,17,27,22.70
2013,06,15,17,28,22.70
2013,06,15,17,29,22.70
2013,06,15,17,30,22.70
2013,06,15,17,31,22.60
2013,06,15,17,32,22.60
2013,06,15,17,33,22.60
2013,06,15,17,34,22.70
2013,06,15,17,35,22.70
2013,06,15,17,36,22.70